Location: Pace/Milton
(30.6162°N, 87.1503°W)
Time: 13:02:57
(UTC-06:00)

ISS - Pass Details

Date: 07 December 2021
Orbit: 413 x 422 km, 51.6° (Epoch: 24 January)

Event Time Altitude Azimuth Distance (km) Brightness Sun altitude
Rises 17:55:43 0° 321° (NW) 2,374 0.4 -14.5°
Reaches altitude 10° 17:57:53 10° 327° (NNW) 1,505 -0.8 -14.9°
Maximum altitude 18:01:10 48° 43° (NE) 558 -3.5 -15.6°
Enters shadow 18:02:06 36° 91° (E) 687 -3.2 -15.8°
